| time (UTC) | temp F | wind direction | speed MPH | gust MPH | rain 1hr in | rain 24hr in | rain mn in | humidity % | barometer mb |
| 20260507014559 | 72 | 234 | 2.0 | 10.0 | 0.00 | 0.00 | 0.00 | 91 | 1014.4 |
| 20260507013054 | 72 | 215 | 2.0 | 11.0 | 0.00 | 0.00 | 0.00 | 91 | 1014.5 |
| 20260507011550 | 72 | 281 | 1.0 | 9.0 | 0.00 | 0.00 | 0.00 | 90 | 1014.4 |
| 20260507010109 | 72 | 248 | 2.0 | 8.0 | 0.00 | 0.00 | 0.00 | 90 | 1015.0 |
| 20260507004555 | 72 | 261 | 2.0 | 7.0 | 0.00 | 0.00 | 0.00 | 90 | 1014.7 |
| 20260507003059 | 72 | 297 | 3.0 | 8.0 | 0.00 | 0.00 | 0.00 | 90 | 1014.6 |
| 20260507001558 | 73 | 274 | 2.0 | 8.0 | 0.00 | 0.00 | 0.00 | 89 | 1014.5 |
| 20260507000057 | 73 | 223 | 2.0 | 9.0 | 0.00 | 0.00 | 0.00 | 88 | 1014.5 |
| 20260506234558 | 73 | 203 | 2.0 | 8.0 | 0.00 | 0.00 | 0.00 | 88 | 1014.7 |
| 20260506233055 | 73 | 207 | 3.0 | 9.0 | 0.00 | 0.00 | 0.00 | 88 | 1014.5 |
| 20260506231609 | 73 | 229 | 3.0 | 8.0 | 0.00 | 0.00 | 0.00 | 87 | 1014.5 |
| 20260506230116 | 73 | 279 | 4.0 | 11.0 | 0.00 | 0.00 | 0.00 | 87 | 1014.4 |
| 20260506224557 | 74 | 222 | 4.0 | 12.0 | 0.00 | 0.00 | 0.00 | 86 | 1014.5 |
| 20260506223059 | 75 | 245 | 5.0 | 10.0 | 0.00 | 0.00 | 0.00 | 84 | 1014.4 |
| 20260506221624 | 75 | 229 | 5.0 | 10.0 | 0.00 | 0.00 | 0.00 | 83 | 1014.4 |
| 20260506220120 | 76 | 225 | 4.0 | 13.0 | 0.00 | 0.00 | 0.00 | 82 | 1014.4 |
| 20260506214555 | 76 | 270 | 3.0 | 13.0 | 0.00 | 0.00 | 0.00 | 81 | 1014.2 |
| 20260506213106 | 76 | 241 | 5.0 | 13.0 | 0.00 | 0.00 | 0.00 | 81 | 1014.6 |
| 20260506211600 | 77 | 270 | 4.0 | 14.0 | 0.00 | 0.00 | 0.00 | 80 | 1014.7 |
| 20260506210055 | 77 | 215 | 4.0 | 12.0 | 0.00 | 0.00 | 0.00 | 78 | 1014.7 |
| 20260506204554 | 78 | 221 | 5.0 | 15.0 | 0.00 | 0.00 | 0.00 | 77 | 1014.9 |
| 20260506203049 | 77 | 285 | 5.0 | 15.0 | 0.00 | 0.00 | 0.00 | 78 | 1015.0 |
| 20260506201552 | 77 | 294 | 5.0 | 14.0 | 0.00 | 0.00 | 0.00 | 78 | 1015.4 |
| 20260506200055 | 77 | 236 | 5.0 | 12.0 | 0.00 | 0.00 | 0.00 | 76 | 1015.5 |
| 20260506194554 | 78 | 192 | 5.0 | 15.0 | 0.00 | 0.00 | 0.00 | 76 | 1015.5 |
| 20260506193051 | 78 | 274 | 6.0 | 15.0 | 0.00 | 0.00 | 0.00 | 76 | 1015.6 |
| 20260506191556 | 78 | 228 | 4.0 | 13.0 | 0.00 | 0.00 | 0.00 | 76 | 1015.9 |
| 20260506190056 | 77 | 238 | 5.0 | 13.0 | 0.00 | 0.00 | 0.00 | 76 | 1016.0 |
| 20260506184612 | 78 | 273 | 4.0 | 11.0 | 0.00 | 0.00 | 0.00 | 76 | 1016.4 |
| 20260506183054 | 78 | 224 | 5.0 | 12.0 | 0.00 | 0.00 | 0.00 | 76 | 1016.4 |
| 20260506181553 | 78 | 208 | 7.0 | 12.0 | 0.00 | 0.00 | 0.00 | 75 | 1016.6 |
| 20260506180052 | 77 | 227 | 4.0 | 12.0 | 0.00 | 0.00 | 0.00 | 78 | 1016.8 |
| 20260506174552 | 77 | 276 | 4.0 | 16.0 | 0.00 | 0.00 | 0.00 | 78 | 1017.0 |
| 20260506173050 | 77 | 196 | 4.0 | 10.0 | 0.00 | 0.00 | 0.00 | 78 | 1017.2 |
| 20260506171559 | 76 | 211 | 4.0 | 12.0 | 0.00 | 0.00 | 0.00 | 80 | 1017.3 |
| 20260506170057 | 77 | 242 | 4.0 | 10.0 | 0.00 | 0.00 | 0.00 | 78 | 1017.4 |
| 20260506164551 | 76 | 236 | 5.0 | 17.0 | 0.00 | 0.00 | 0.00 | 78 | 1017.4 |
| 20260506163052 | 77 | 274 | 4.0 | 11.0 | 0.00 | 0.00 | 0.00 | 78 | 1017.6 |
| 20260506161550 | 77 | 225 | 6.0 | 10.0 | 0.00 | 0.00 | 0.00 | 79 | 1017.4 |
| 20260506160101 | 76 | 267 | 4.0 | 11.0 | 0.00 | 0.00 | 0.00 | 79 | 1017.6 |
| 20260506154557 | 76 | 221 | 4.0 | 10.0 | 0.00 | 0.00 | 0.00 | 79 | 1017.7 |
| 20260506153051 | 76 | 251 | 4.0 | 13.0 | 0.00 | 0.00 | 0.00 | 81 | 1017.6 |
| 20260506151556 | 75 | 206 | 4.0 | 10.0 | 0.00 | 0.00 | 0.00 | 80 | 1017.7 |
| 20260506150055 | 75 | 222 | 3.0 | 9.0 | 0.00 | 0.00 | 0.00 | 81 | 1017.7 |
| 20260506144601 | 75 | 266 | 4.0 | 11.0 | 0.00 | 0.00 | 0.00 | 81 | 1017.4 |
| 20260506143053 | 75 | 221 | 5.0 | 12.0 | 0.00 | 0.00 | 0.00 | 79 | 1017.4 |
| 20260506141553 | 75 | 250 | 3.0 | 9.0 | 0.00 | 0.00 | 0.00 | 80 | 1017.1 |
| 20260506140052 | 75 | 201 | 5.0 | 10.0 | 0.00 | 0.00 | 0.00 | 77 | 1017.2 |
| 20260506134551 | 75 | 180 | 3.0 | 10.0 | 0.00 | 0.00 | 0.00 | 79 | 1017.1 |
| 20260506133053 | 74 | 265 | 5.0 | 11.0 | 0.00 | 0.00 | 0.00 | 79 | 1017.1 |
| 20260506131605 | 74 | 304 | 3.0 | 9.0 | 0.00 | 0.00 | 0.00 | 81 | 1017.0 |
| 20260506130052 | 73 | 217 | 5.0 | 12.0 | 0.00 | 0.00 | 0.00 | 81 | 1016.8 |
| 20260506124552 | 73 | 200 | 4.0 | 10.0 | 0.00 | 0.00 | 0.00 | 82 | 1016.6 |
| 20260506123057 | 72 | 248 | 3.0 | 11.0 | 0.00 | 0.00 | 0.00 | 84 | 1016.5 |
| 20260506121556 | 71 | 199 | 3.0 | 8.0 | 0.00 | 0.00 | 0.00 | 87 | 1016.5 |
| 20260506120053 | 70 | 281 | 1.0 | 6.0 | 0.00 | 0.00 | 0.00 | 90 | 1016.4 |
| 20260506114556 | 67 | 240 | 1.0 | 5.0 | 0.00 | 0.00 | 0.00 | 93 | 1016.3 |
| 20260506113053 | 65 | 234 | 1.0 | 4.0 | 0.00 | 0.00 | 0.00 | 93 | 1016.0 |
| 20260506111550 | 61 | 171 | 0.0 | 1.0 | 0.00 | 0.00 | 0.00 | 92 | 1016.0 |
| 20260506110052 | 61 | 0 | 0.0 | 1.0 | 0.00 | 0.00 | 0.00 | 92 | 1016.2 |
| 20260506104555 | 61 | 355 | 0.0 | 1.0 | 0.00 | 0.00 | 0.00 | 92 | 1016.0 |
| 20260506103054 | 61 | 0 | 0.0 | 0.0 | 0.00 | 0.00 | 0.00 | 91 | 1015.8 |
| 20260506101550 | 60 | 0 | 0.0 | 0.0 | 0.00 | 0.00 | 0.00 | 90 | 1015.9 |
| 20260506100104 | 61 | 0 | 0.0 | 1.0 | 0.00 | 0.00 | 0.00 | 89 | 1015.8 |
| 20260506094552 | 62 | 0 | 0.0 | 0.0 | 0.00 | 0.00 | 0.00 | 90 | 1015.8 |
| 20260506093053 | 63 | 0 | 0.0 | 0.0 | 0.00 | 0.00 | 0.00 | 89 | 1015.9 |
| 20260506091556 | 63 | 0 | 0.0 | 1.0 | 0.00 | 0.00 | 0.00 | 88 | 1016.0 |
| 20260506090050 | 64 | 0 | 0.0 | 1.0 | 0.00 | 0.00 | 0.00 | 87 | 1015.9 |
| 20260506084549 | 66 | 235 | 0.0 | 2.0 | 0.00 | 0.00 | 0.00 | 86 | 1016.0 |
| 20260506083050 | 67 | 0 | 0.0 | 3.0 | 0.00 | 0.00 | 0.00 | 85 | 1015.9 |
| 20260506081554 | 67 | 234 | 0.0 | 3.0 | 0.00 | 0.00 | 0.00 | 85 | 1015.9 |
| 20260506073055 | 67 | 240 | 0.0 | 4.0 | 0.00 | 0.00 | 0.00 | 85 | 1016.0 |
| 20260506071559 | 67 | 233 | 1.0 | 5.0 | 0.00 | 0.00 | 0.00 | 85 | 1015.7 |
| 20260506061551 | 66 | 254 | 1.0 | 4.0 | 0.00 | 0.00 | 0.00 | 85 | 1016.2 |
| 20260506044552 | 65 | 0 | 0.0 | 3.0 | 0.00 | 0.00 | 0.00 | 80 | 1016.7 |
| 20260506043047 | 66 | 207 | 1.0 | 4.0 | 0.00 | 0.00 | 0.00 | 80 | 1016.8 |
| 20260506041559 | 66 | 232 | 2.0 | 5.0 | 0.00 | 0.00 | 0.00 | 80 | 1016.9 |
| 20260506040109 | 66 | 231 | 2.0 | 4.0 | 0.00 | 0.00 | 0.00 | 79 | 1016.9 |
| 20260506034547 | 66 | 202 | 1.0 | 4.0 | 0.00 | 0.00 | 0.00 | 79 | 1016.8 |
| 20260506033050 | 66 | 241 | 1.0 | 4.0 | 0.00 | 0.00 | 0.00 | 78 | 1016.8 |
| 20260506031553 | 65 | 223 | 1.0 | 3.0 | 0.00 | 0.00 | 0.00 | 77 | 1016.7 |
| 20260506024558 | 66 | 207 | 1.0 | 4.0 | 0.00 | 0.00 | 0.00 | 76 | 1016.8 |
| 20260506023058 | 65 | 132 | 3.0 | 7.0 | 0.00 | 0.00 | 0.00 | 77 | 1016.7 |
| 20260506021559 | 65 | 236 | 0.0 | 3.0 | 0.00 | 0.00 | 0.00 | 76 | 1017.0 |
| 20260506020052 | 65 | 242 | 1.0 | 3.0 | 0.00 | 0.00 | 0.00 | 75 | 1016.9 |